Weather History for Mosby, MO

Change the Weather History Date:

Tuesday, November 5, 2013

  Actual Average (KMKC) Record (KMKC)
Temperature  
Mean Temperature 56 °F -  
Max Temperature 60 °F 55 °F 73 °F (2008)
Min Temperature 51 °F 39 °F 32 °F (2010)
Degree Days  
Heating Degree Days 10    
Growing Degree Days 6 (Base 50)    
Moisture  
Dew Point 55 °F    
Average Humidity 97    
Maximum Humidity 100    
Minimum Humidity 82    
Precipitation  
Precipitation 0.00 in - - ()
Sea Level Pressure  
Sea Level Pressure 29.99 in    
Wind  
Wind Speed 5 mph (SSE)    
Max Wind Speed 14 mph    
Max Gust Speed 22 mph    
Visibility 8 miles    
Events Rain    
Averages and records for this station are not official NWS values.
T = Trace of Precipitation, MM = Missing Value Source: NWS Daily Summary

Daily Weather History Graph

Daily Weather History Graph

Search for Another Location

Airport:

Trip Planner

Search our weather history database for the weather conditions in past years. The results will help you decide how hot, cold, wet, or windy it might be!

Date:

Astronomy

Nov. 05, 2013 Rise Set
Actual Time 6:49 AM CST 5:11 PM CST
Civil Twilight 6:21 AM CST 5:39 PM CST
Nautical Twilight 5:49 AM CST 6:11 PM CST
Astronomical Twilight 5:18 AM CST 6:42 PM CST
Moon 9:05 AM CST (11/5) 7:13 PM CST (11/5)
Length of Visible Light 11h 17m
Length of Day
10h 21m
Waxing Crescent, 7% of the Moon is Illuminated
Nov 5
Waxing Crescent
Nov 9
First Quarter
Nov 17
Full
Nov 25
Last Quarter
Dec 2
New

Hourly Weather History & Observations

Time (CST) Temp. Dew Point Humidity Pressure Visibility Wind Dir Wind Speed Gust Speed Precip Events Conditions
12:15 AM 55.4 °F 50.0 °F 82% 30.11 in 10.0 mi Calm Calm - N/A   Overcast
12:35 AM 55.4 °F 50.0 °F 82% 30.11 in 10.0 mi Calm Calm - N/A   Overcast
12:55 AM 53.6 °F 50.0 °F 88% 30.11 in 10.0 mi Calm Calm - N/A   Overcast
1:15 AM 55.4 °F 50.0 °F 82% 30.11 in 10.0 mi SE 3.5 mph - N/A   Overcast
1:35 AM 55.4 °F 50.0 °F 82% 30.11 in 10.0 mi SE 4.6 mph - N/A   Overcast
1:55 AM 55.4 °F 50.0 °F 82% 30.11 in 10.0 mi ESE 3.5 mph - N/A   Overcast
2:15 AM 55.4 °F 51.8 °F 88% 30.11 in 7.0 mi SSE 3.5 mph - N/A   Overcast
2:35 AM 55.4 °F 51.8 °F 88% 30.11 in 7.0 mi SE 3.5 mph - N/A   Light Drizzle
2:55 AM 55.4 °F 53.6 °F 94% 30.11 in 5.0 mi Calm Calm - N/A   Light Drizzle
3:15 AM 53.6 °F 53.6 °F 100% 30.10 in 4.0 mi Calm Calm - N/A   Drizzle
3:35 AM 53.6 °F 53.6 °F 100% 30.10 in 3.0 mi Calm Calm - N/A   Drizzle
3:55 AM 53.6 °F 53.6 °F 100% 30.10 in 3.0 mi ESE 5.8 mph - N/A   Drizzle
4:15 AM 53.6 °F 53.6 °F 100% 30.10 in 4.0 mi ESE 4.6 mph - N/A   Drizzle
4:35 AM 53.6 °F 53.6 °F 100% 30.11 in 4.0 mi SE 4.6 mph - N/A Rain Light Rain
4:55 AM 53.6 °F 53.6 °F 100% 30.11 in 2.5 mi SE 5.8 mph - N/A   Light Drizzle
5:15 AM 51.8 °F 51.8 °F 100% 30.11 in 3.0 mi SE 4.6 mph - N/A   Light Drizzle
5:35 AM 51.8 °F 51.8 °F 100% 30.10 in 3.0 mi SE 3.5 mph - N/A   Overcast
5:55 AM 51.8 °F 51.8 °F 100% 30.11 in 5.0 mi ESE 3.5 mph - N/A   Overcast
6:15 AM 51.8 °F 51.8 °F 100% 30.11 in 3.0 mi SE 4.6 mph - N/A   Overcast
6:35 AM 51.8 °F 51.8 °F 100% 30.10 in 2.5 mi SE 3.5 mph - N/A   Drizzle
6:55 AM 51.8 °F 51.8 °F 100% 30.10 in 4.0 mi SE 4.6 mph - N/A   Overcast
7:15 AM 51.8 °F 51.8 °F 100% 30.09 in 3.0 mi ESE 5.8 mph - N/A   Overcast
7:35 AM 51.8 °F 51.8 °F 100% 30.09 in 1.8 mi ESE 4.6 mph - N/A   Overcast
7:55 AM 53.6 °F 53.6 °F 100% 30.09 in 2.0 mi SE 5.8 mph - N/A   Overcast
8:15 AM 53.6 °F 53.6 °F 100% 30.09 in 2.0 mi SE 6.9 mph - N/A   Heavy Drizzle
8:35 AM 53.6 °F 53.6 °F 100% 30.09 in 3.0 mi SE 6.9 mph - N/A   Drizzle
8:55 AM 53.6 °F 53.6 °F 100% 30.08 in 5.0 mi SE 4.6 mph - N/A Rain Light Rain
9:15 AM 53.6 °F 53.6 °F 100% 30.08 in 5.0 mi SE 5.8 mph - N/A   Light Drizzle
9:35 AM 53.6 °F 53.6 °F 100% 30.07 in 5.0 mi SE 5.8 mph - N/A Rain Heavy Rain
9:55 AM 53.6 °F 53.6 °F 100% 30.07 in 4.0 mi SE 5.8 mph - N/A Rain Light Rain
10:15 AM 53.6 °F 53.6 °F 100% 30.06 in 5.0 mi SE 6.9 mph - N/A Rain Heavy Rain
10:35 AM 53.6 °F 53.6 °F 100% 30.05 in 5.0 mi SSE 8.1 mph - N/A Rain Rain
10:55 AM 55.4 °F 55.4 °F 100% 30.04 in 7.0 mi SE 6.9 mph - N/A Rain Rain
11:15 AM 55.4 °F 55.4 °F 100% 30.04 in 10.0 mi SSE 5.8 mph - N/A Rain Light Rain
11:35 AM 55.4 °F 55.4 °F 100% 30.02 in 10.0 mi SSE 5.8 mph - N/A   Light Drizzle
11:55 AM 55.4 °F 55.4 °F 100% 30.01 in 10.0 mi SSE 8.1 mph - N/A Rain Light Rain
12:15 PM 55.4 °F 55.4 °F 100% 29.99 in 10.0 mi SE 10.4 mph - N/A   Overcast
12:35 PM 57.2 °F 55.4 °F 94% 29.98 in 10.0 mi SSE 9.2 mph - N/A   Overcast
12:55 PM 57.2 °F 55.4 °F 94% 29.97 in 10.0 mi SSE 9.2 mph 17.3 mph N/A   Overcast
1:15 PM 57.2 °F 55.4 °F 94% 29.96 in 10.0 mi South 10.4 mph 16.1 mph N/A   Overcast
1:35 PM 59.0 °F 57.2 °F 94% 29.95 in 10.0 mi South 12.7 mph 18.4 mph N/A   Overcast
1:55 PM 59.0 °F 57.2 °F 94% 29.93 in 10.0 mi SSE 11.5 mph 18.4 mph N/A   Overcast
2:15 PM 59.0 °F 55.4 °F 88% 29.92 in 10.0 mi South 13.8 mph 19.6 mph N/A   Overcast
2:35 PM 59.0 °F 55.4 °F 88% 29.92 in 10.0 mi South 13.8 mph 21.9 mph N/A   Overcast
2:55 PM 59.0 °F 55.4 °F 88% 29.91 in 10.0 mi South 9.2 mph 18.4 mph N/A   Overcast
3:15 PM 59.0 °F 55.4 °F 88% 29.91 in 10.0 mi SSE 9.2 mph 19.6 mph N/A   Overcast
3:35 PM 59.0 °F 57.2 °F 94% 29.90 in 10.0 mi SSE 10.4 mph 17.3 mph N/A Rain Light Rain
3:55 PM 59.0 °F 57.2 °F 94% 29.90 in 10.0 mi SSE 9.2 mph - N/A   Overcast
4:15 PM 59.0 °F 57.2 °F 94% 29.89 in 10.0 mi SSE 11.5 mph 16.1 mph N/A   Overcast
4:35 PM 59.0 °F 57.2 °F 94% 29.89 in 10.0 mi South 8.1 mph 18.4 mph N/A   Overcast
4:55 PM 59.0 °F 59.0 °F 100% 29.88 in 10.0 mi SSE 10.4 mph 16.1 mph N/A   Overcast
5:15 PM 59.0 °F 59.0 °F 100% 29.88 in 10.0 mi SSE 12.7 mph - N/A   Overcast
5:35 PM 59.0 °F 59.0 °F 100% 29.88 in 10.0 mi SSE 8.1 mph - N/A   Overcast
5:55 PM 59.0 °F 59.0 °F 100% 29.88 in 10.0 mi South 6.9 mph - N/A Rain Rain
6:15 PM 59.0 °F 59.0 °F 100% 29.88 in 7.0 mi South 6.9 mph - N/A Rain Light Rain
6:35 PM 59.0 °F 59.0 °F 100% 29.88 in 10.0 mi SSE 9.2 mph - N/A   Drizzle
6:55 PM 59.0 °F 59.0 °F 100% 29.88 in 7.0 mi South 8.1 mph - N/A Rain Heavy Rain
7:15 PM 59.0 °F 59.0 °F 100% 29.87 in 7.0 mi SSE 9.2 mph - N/A Rain Rain
7:35 PM 59.0 °F 59.0 °F 100% 29.87 in 10.0 mi South 10.4 mph - N/A   Overcast
7:55 PM 59.0 °F 59.0 °F 100% 29.87 in 7.0 mi South 9.2 mph - N/A   Overcast
8:15 PM 59.0 °F 59.0 °F 100% 29.87 in 7.0 mi South 8.1 mph - N/A Rain Rain
8:35 PM 59.0 °F 59.0 °F 100% 29.87 in 10.0 mi South 6.9 mph - N/A   Drizzle
8:55 PM 59.0 °F 59.0 °F 100% 29.87 in 10.0 mi South 5.8 mph - N/A   Light Drizzle
9:15 PM 59.0 °F 59.0 °F 100% 29.87 in 7.0 mi South 8.1 mph - N/A   Heavy Drizzle
9:35 PM 60.8 °F 60.8 °F 100% 29.87 in 10.0 mi SSW 6.9 mph - N/A   Light Drizzle
9:55 PM 60.8 °F 60.8 °F 100% 29.87 in 10.0 mi South 6.9 mph - N/A   Overcast
10:15 PM 60.8 °F 60.8 °F 100% 29.87 in 10.0 mi South 6.9 mph - N/A   Overcast
10:35 PM 60.8 °F 60.8 °F 100% 29.86 in 10.0 mi South 6.9 mph - N/A   Overcast
10:55 PM 60.8 °F 60.8 °F 100% 29.86 in 10.0 mi South 6.9 mph - N/A   Overcast
11:15 PM 60.8 °F 60.8 °F 100% 29.85 in 10.0 mi South 6.9 mph - N/A Rain Light Rain
11:35 PM 60.8 °F 60.8 °F 100% 29.85 in 10.0 mi South 6.9 mph - N/A Rain Rain
11:55 PM 53.6 °F 53.6 °F 100% 29.88 in 7.0 mi West 13.8 mph 20.7 mph N/A Rain Rain